Terug naar catalogus

YUNYAO-1 45

ActiefWeerSSO
NORAD 63346·PAYLOAD·🇨🇳 China

Gelanceerd Mar 21, 2025 vanaf Jiuquan Satellite Launch Center

Loading…

Volgende Passages (komende 24 uur)

TLE

VersSource: Space-Track

Epoch: Sep 14, 2026, 23:31 UTC

1 63346U 25059C   26257.98012635  .00003229  00000-0  19426-3 0  9990
2 63346  97.6154  79.0833 0015025 204.3693 155.6829 15.11475235 81869

Volg YUNYAO-1 45 in realtime met AllMySat

Download on the App Store